| time (UTC) | temp F | wind direction | speed knots | gust knots | rain 1hr in | rain 24hr in | rain mn in | humidity % | barometer mb |
| 20260902050036 | 81 | 222 | 0.0 | 0.0 | 0.00 | 0.00 | 0.00 | 100 | 1015.1 |
| 20260902044532 | 81 | 222 | 0.0 | 0.0 | 0.00 | 0.00 | 0.00 | 100 | 1015.2 |
| 20260902043028 | 82 | 222 | 0.0 | 0.0 | 0.00 | 0.00 | 0.00 | 100 | 1015.1 |
| 20260902041526 | 82 | 222 | 0.0 | 0.0 | 0.00 | 0.00 | 0.00 | 100 | 1015.3 |
| 20260902040020 | 82 | 222 | 0.0 | 0.0 | 0.00 | 0.00 | 0.00 | 100 | 1015.4 |
| 20260902034515 | 83 | 227 | 0.0 | 5.2 | 0.00 | 0.00 | 0.00 | 100 | 1015.3 |
| 20260902033012 | 83 | 232 | 0.0 | 0.9 | 0.00 | 0.00 | 0.00 | 100 | 1015.5 |
| 20260902031506 | 84 | 232 | 0.0 | 4.3 | 0.00 | 0.00 | 0.00 | 100 | 1015.4 |
| 20260902030002 | 84 | 234 | 0.0 | 5.2 | 0.00 | 0.00 | 0.00 | 100 | 1015.4 |
| 20260902024559 | 84 | 231 | 0.0 | 2.6 | 0.00 | 0.00 | 0.00 | 100 | 1015.4 |
| 20260902023054 | 85 | 234 | 0.0 | 4.3 | 0.00 | 0.00 | 0.00 | 100 | 1015.4 |
| 20260902021552 | 85 | 225 | 0.0 | 4.3 | 0.00 | 0.00 | 0.00 | 100 | 1015.3 |
| 20260902020044 | 86 | 233 | 0.0 | 3.5 | 0.00 | 0.00 | 0.00 | 100 | 1015.2 |
| 20260902014541 | 87 | 224 | 0.0 | 4.3 | 0.00 | 0.00 | 0.00 | 100 | 1015.1 |
| 20260902013036 | 87 | 220 | 0.0 | 2.6 | 0.00 | 0.00 | 0.00 | 100 | 1014.9 |
| 20260902011531 | 88 | 229 | 0.0 | 2.6 | 0.00 | 0.00 | 0.00 | 100 | 1014.7 |
| 20260902010040 | 88 | 227 | 0.0 | 4.3 | 0.00 | 0.00 | 0.00 | 100 | 1014.5 |
| 20260902004526 | 89 | 236 | 0.0 | 4.3 | 0.00 | 0.00 | 0.00 | 100 | 1014.3 |
| 20260902003019 | 90 | 216 | 0.0 | 3.5 | 0.00 | 0.00 | 0.00 | 100 | 1014.3 |
| 20260902001514 | 91 | 234 | 0.0 | 6.1 | 0.00 | 0.00 | 0.00 | 100 | 1014.4 |
| 20260902000020 | 92 | 217 | 0.0 | 6.1 | 0.00 | 0.00 | 0.00 | 100 | 1014.3 |
| 20260901234506 | 93 | 231 | 0.0 | 7.0 | 0.00 | 0.00 | 0.00 | 100 | 1014.4 |
| 20260901233000 | 93 | 219 | 0.0 | 6.1 | 0.00 | 0.00 | 0.00 | 100 | 1014.4 |
| 20260901231600 | 94 | 215 | 0.0 | 5.2 | 0.00 | 0.00 | 0.00 | 100 | 1014.5 |
| 20260901230056 | 0 | 0.0 | 0.0 | 0.00 | 0.00 | 0.00 | 1014.5 | ||
| 20260901224548 | 0 | 0.0 | 0.0 | 0.00 | 0.00 | 0.00 | 1014.5 | ||
| 20260901223043 | 0 | 0.0 | 0.0 | 0.00 | 0.00 | 0.00 | 1014.6 | ||
| 20260901221603 | 0 | 0.0 | 0.0 | 0.00 | 0.00 | 0.00 | 1014.6 | ||
| 20260901220035 | 0 | 0.0 | 0.0 | 0.00 | 0.00 | 0.00 | 1014.6 | ||
| 20260901214530 | 0 | 0.0 | 0.0 | 0.00 | 0.00 | 0.00 | 1014.5 | ||
| 20260901213053 | 0 | 0.0 | 0.0 | 0.00 | 0.00 | 0.00 | 1014.4 | ||
| 20260901211535 | 0 | 0.0 | 0.0 | 0.00 | 0.00 | 0.00 | 1014.6 | ||
| 20260901210021 | 0 | 0.0 | 0.0 | 0.00 | 0.00 | 0.00 | 1014.5 | ||
| 20260901204512 | 0 | 0.0 | 0.0 | 0.00 | 0.00 | 0.00 | 1014.6 | ||
| 20260901203009 | 0 | 0.0 | 0.0 | 0.00 | 0.00 | 0.00 | 1014.6 | ||
| 20260901201503 | 0 | 0.0 | 0.0 | 0.00 | 0.00 | 0.00 | 1014.7 | ||
| 20260901200058 | 0 | 0.0 | 0.0 | 0.00 | 0.00 | 0.00 | 1014.8 | ||
| 20260901194554 | 0 | 0.0 | 0.0 | 0.00 | 0.00 | 0.00 | 1014.9 | ||
| 20260901193059 | 0 | 0.0 | 0.0 | 0.00 | 0.00 | 0.00 | 1014.9 | ||
| 20260901191545 | 0 | 0.0 | 0.0 | 0.00 | 0.00 | 0.00 | 1015.0 | ||
| 20260901190041 | 0 | 0.0 | 0.0 | 0.00 | 0.00 | 0.00 | 1015.2 | ||
| 20260901184541 | 0 | 0.0 | 0.0 | 0.00 | 0.00 | 0.00 | 1015.3 | ||
| 20260901183032 | 94 | 360 | 2.6 | 8.7 | 0.00 | 0.00 | 0.00 | 100 | 1015.4 |
| 20260901181528 | 94 | 234 | 2.6 | 9.6 | 0.00 | 0.00 | 0.00 | 100 | 1015.4 |
| 20260901180024 | 94 | 360 | 1.7 | 8.7 | 0.00 | 0.00 | 0.00 | 100 | 1015.6 |
| 20260901174519 | 94 | 228 | 2.6 | 10.4 | 0.00 | 0.00 | 0.00 | 100 | 1015.6 |
| 20260901173014 | 93 | 219 | 1.7 | 7.8 | 0.00 | 0.00 | 0.00 | 100 | 1015.6 |
| 20260901171517 | 93 | 237 | 0.9 | 7.0 | 0.00 | 0.00 | 0.00 | 100 | 1015.7 |
| 20260901170006 | 92 | 246 | 0.9 | 7.0 | 0.00 | 0.00 | 0.00 | 100 | 1015.8 |
| 20260901164502 | 92 | 360 | 0.9 | 7.0 | 0.00 | 0.00 | 0.00 | 100 | 1015.9 |
| 20260901163057 | 91 | 360 | 2.6 | 8.7 | 0.00 | 0.00 | 0.00 | 100 | 1015.9 |
| 20260901161552 | 90 | 247 | 2.6 | 7.0 | 0.00 | 0.00 | 0.00 | 100 | 1016.0 |
| 20260901160048 | 90 | 240 | 1.7 | 7.8 | 0.00 | 0.00 | 0.00 | 100 | 1015.9 |
| 20260901154544 | 88 | 360 | 1.7 | 7.8 | 0.00 | 0.00 | 0.00 | 100 | 1016.0 |
| 20260901153039 | 88 | 360 | 0.9 | 7.0 | 0.00 | 0.00 | 0.00 | 100 | 1016.0 |
| 20260901151536 | 87 | 360 | 0.9 | 5.2 | 0.00 | 0.00 | 0.00 | 100 | 1016.1 |
| 20260901150031 | 86 | 235 | 0.0 | 3.5 | 0.00 | 0.00 | 0.00 | 100 | 1016.0 |
| 20260901144527 | 84 | 360 | 0.9 | 5.2 | 0.00 | 0.00 | 0.00 | 100 | 1016.1 |
| 20260901143022 | 83 | 360 | 2.6 | 7.0 | 0.00 | 0.00 | 0.00 | 100 | 1016.0 |
| 20260901141520 | 83 | 360 | 1.7 | 6.1 | 0.00 | 0.00 | 0.00 | 100 | 1015.7 |
| 20260901140015 | 82 | 245 | 0.9 | 6.1 | 0.00 | 0.00 | 0.00 | 100 | 1015.8 |
| 20260901134509 | 81 | 360 | 0.0 | 7.0 | 0.00 | 0.00 | 0.00 | 100 | 1015.9 |
| 20260901133004 | 80 | 214 | 0.9 | 6.1 | 0.00 | 0.00 | 0.00 | 100 | 1015.9 |
| 20260901131605 | 79 | 242 | 0.9 | 5.2 | 0.00 | 0.00 | 0.00 | 100 | 1016.0 |
| 20260901130057 | 78 | 250 | 0.0 | 1.7 | 0.00 | 0.00 | 0.00 | 100 | 1016.1 |
| 20260901124552 | 77 | 360 | 1.7 | 5.2 | 0.00 | 0.00 | 0.00 | 100 | 1016.2 |
| 20260901123049 | 77 | 251 | 0.9 | 4.3 | 0.00 | 0.00 | 0.00 | 100 | 1016.1 |
| 20260901121547 | 76 | 235 | 0.0 | 3.5 | 0.00 | 0.00 | 0.00 | 100 | 1016.0 |
| 20260901120044 | 76 | 232 | 0.0 | 0.0 | 0.00 | 0.00 | 0.00 | 100 | 1015.7 |
| 20260901114537 | 76 | 226 | 0.0 | 0.0 | 0.00 | 0.00 | 0.00 | 100 | 1015.3 |
| 20260901113030 | 76 | 229 | 0.0 | 0.0 | 0.00 | 0.00 | 0.00 | 100 | 1015.4 |
| 20260901111526 | 76 | 229 | 0.0 | 0.0 | 0.00 | 0.00 | 0.00 | 100 | 1015.2 |
| 20260901110026 | 76 | 227 | 0.0 | 0.0 | 0.00 | 0.00 | 0.00 | 100 | 1015.0 |
| 20260901104519 | 76 | 230 | 0.0 | 0.0 | 0.00 | 0.00 | 0.00 | 100 | 1014.9 |
| 20260901103012 | 76 | 234 | 0.0 | 2.6 | 0.00 | 0.00 | 0.00 | 100 | 1014.9 |
| 20260901101509 | 76 | 246 | 0.0 | 1.7 | 0.00 | 0.00 | 0.00 | 100 | 1014.8 |
| 20260901100006 | 76 | 247 | 0.0 | 0.0 | 0.00 | 0.00 | 0.00 | 100 | 1014.7 |
| 20260901094602 | 77 | 248 | 0.0 | 0.0 | 0.00 | 0.00 | 0.00 | 100 | 1014.8 |
| 20260901093055 | 77 | 248 | 0.0 | 0.0 | 0.00 | 0.00 | 0.00 | 100 | 1014.9 |
| 20260901091551 | 77 | 248 | 0.0 | 3.5 | 0.00 | 0.00 | 0.00 | 100 | 1014.6 |
| 20260901090050 | 77 | 244 | 0.0 | 2.6 | 0.00 | 0.00 | 0.00 | 100 | 1014.6 |
| 20260901084546 | 77 | 244 | 0.9 | 4.3 | 0.00 | 0.00 | 0.00 | 100 | 1014.7 |
| 20260901083038 | 77 | 244 | 0.0 | 2.6 | 0.00 | 0.00 | 0.00 | 100 | 1014.5 |
| 20260901081540 | 78 | 245 | 0.0 | 2.6 | 0.00 | 0.00 | 0.00 | 100 | 1014.7 |
| 20260901080028 | 78 | 243 | 1.7 | 6.1 | 0.00 | 0.00 | 0.00 | 100 | 1014.6 |
| 20260901074525 | 79 | 251 | 1.7 | 6.1 | 0.00 | 0.00 | 0.00 | 100 | 1014.6 |
| 20260901073023 | 79 | 247 | 0.9 | 5.2 | 0.00 | 0.00 | 0.00 | 100 | 1014.6 |
| 20260901071516 | 79 | 233 | 0.0 | 6.1 | 0.00 | 0.00 | 0.00 | 100 | 1014.5 |
| 20260901070021 | 79 | 234 | 0.9 | 5.2 | 0.00 | 0.00 | 0.00 | 100 | 1014.4 |
| 20260901064508 | 79 | 243 | 0.9 | 5.2 | 0.00 | 0.00 | 0.00 | 100 | 1014.4 |
| 20260901063006 | 80 | 230 | 0.0 | 3.5 | 0.00 | 0.00 | 0.00 | 100 | 1014.4 |
| 20260901061600 | 80 | 227 | 0.0 | 3.5 | 0.00 | 0.00 | 0.00 | 100 | 1014.3 |
| 20260901060054 | 80 | 222 | 0.9 | 4.3 | 0.00 | 0.00 | 0.00 | 100 | 1014.4 |
| 20260901054550 | 80 | 223 | 0.0 | 2.6 | 0.00 | 0.00 | 0.00 | 100 | 1014.3 |
| 20260901053046 | 80 | 223 | 0.0 | 0.0 | 0.00 | 0.00 | 0.00 | 100 | 1014.4 |
| 20260901051541 | 80 | 223 | 0.0 | 0.0 | 0.00 | 0.00 | 0.00 | 100 | 1014.5 |